CW9991 Weather Reports


time (UTC)temp
C
wind
direction
speed
KPH
gust
KPH
rain 1hr
cm
rain 24hr
cm
rain mn
cm
humidity
%
barometer
mb
20260508213015 23 252 1.6 11.3 0.00 0.00 0.00 22 1015.2
20260508212027 23 224 0.0 9.7 0.00 0.00 0.00 23 1015.3
20260508211038 23 225 1.6 8.0 0.00 0.00 0.00 23 1015.3
20260508210020 23 177 3.2 12.9 0.00 0.00 0.00 22 1015.5
20260508205032 23 270 1.6 14.5 0.00 0.00 0.00 23 1015.6
20260508204037 23 253 0.0 9.7 0.00 0.00 0.00 24 1015.7
20260508203054 23 269 9.7 17.7 0.00 0.00 0.00 24 1015.8
20260508202018 22 191 0.0 16.1 0.00 0.00 0.00 27 1015.9
20260508201029 23 211 3.2 12.9 0.00 0.00 0.00 22 1015.9
20260508200013 22 359 1.6 12.9 0.00 0.00 0.00 23 1015.9
20260508195024 22 152 0.0 9.7 0.00 0.00 0.00 26 1016.0
20260508194035 22 359 0.0 11.3 0.00 0.00 0.00 29 1016.0
20260508193020 22 230 0.0 8.0 0.00 0.00 0.00 30 1016.2
20260508192031 22 251 1.6 8.0 0.00 0.00 0.00 32 1016.2
20260508191015 21 271 1.6 12.9 0.00 0.00 0.00 31 1016.3
20260508190027 22 359 1.6 11.3 0.00 0.00 0.00 32 1016.3
20260508185039 21 256 3.2 11.3 0.00 0.00 0.00 32 1016.3
20260508184022 22 210 1.6 9.7 0.00 0.00 0.00 30 1016.4
20260508183014 21 255 3.2 9.7 0.00 0.00 0.00 31 1016.5
20260508182019 21 285 0.0 8.0 0.00 0.00 0.00 27 1016.6
20260508181014 21 359 0.0 9.7 0.00 0.00 0.00 29 1016.7
20260508180023 20 243 1.6 11.3 0.00 0.00 0.00 31 1016.7
20260508175050 20 220 1.6 8.0 0.00 0.00 0.00 32 1016.8
20260508174017 20 225 3.2 12.9 0.00 0.00 0.00 33 1016.9
20260508173027 20 266 3.2 8.0 0.00 0.00 0.00 37 1016.9
20260508172038 20 256 1.6 8.0 0.00 0.00 0.00 39 1016.8
20260508171022 20 253 0.0 9.7 0.00 0.00 0.00 41 1017.0
20260508170013 20 359 1.6 9.7 0.00 0.00 0.00 42 1017.0
20260508165024 20 248 0.0 9.7 0.00 0.00 0.00 41 1016.9
20260508164028 20 285 0.0 1.6 0.00 0.00 0.00 42 1016.8
20260508163020 19 260 0.0 4.8 0.00 0.00 0.00 41 1016.8
20260508162032 19 251 0.0 0.0 0.00 0.00 0.00 42 1016.8
20260508161014 19 252 0.0 0.0 0.00 0.00 0.00 43 1016.7
20260508160016 19 225 0.0 3.2 0.00 0.00 0.00 42 1016.7
20260508155019 19 251 0.0 3.2 0.00 0.00 0.00 43 1016.8
20260508154031 18 214 0.0 0.0 0.00 0.00 0.00 41 1016.6
20260508153022 18 214 0.0 0.0 0.00 0.00 0.00 44 1016.5
20260508152033 18 166 0.0 0.0 0.00 0.00 0.00 44 1016.6
20260508151016 17 167 0.0 0.0 0.00 0.00 0.00 46 1016.6
20260508150027 17 168 0.0 0.0 0.00 0.00 0.00 47 1016.5
20260508145017 17 166 0.0 0.0 0.00 0.00 0.00 46 1016.5
20260508144021 16 166 0.0 0.0 0.00 0.00 0.00 46 1016.4
20260508143033 15 166 0.0 0.0 0.00 0.00 0.00 47 1016.3
20260508142023 14 168 0.0 0.0 0.00 0.00 0.00 49 1016.2
20260508141032 13 170 0.0 0.0 0.00 0.00 0.00 51 1016.2
20260508140016 12 169 0.0 0.0 0.00 0.00 0.00 52 1016.1
20260508135028 12 170 0.0 0.0 0.00 0.00 0.00 52 1015.9
20260508134012 12 168 0.0 0.0 0.00 0.00 0.00 51 1015.9
20260508133044 12 110 0.0 0.0 0.00 0.00 0.00 50 1015.8
20260508132056 11 110 0.0 0.0 0.00 0.00 0.00 50 1015.7
20260508131019 11 110 0.0 0.0 0.00 0.00 0.00 51 1015.5
20260508130030 11 110 0.0 0.0 0.00 0.00 0.00 51 1015.3
20260508125013 11 110 0.0 0.0 0.00 0.00 0.00 50 1015.2
20260508124025 11 108 0.0 3.2 0.00 0.00 0.00 50 1015.1
20260508123015 11 122 0.0 0.0 0.00 0.00 0.00 50 1015.1
20260508122019 11 121 0.0 0.0 0.00 0.00 0.00 49 1015.0
20260508121032 11 122 0.0 0.0 0.00 0.00 0.00 49 1014.9
20260508120022 12 125 0.0 0.0 0.00 0.00 0.00 48 1014.8
20260508115033 12 120 0.0 1.6 0.00 0.00 0.00 48 1014.7
20260508114037 12 114 0.0 4.8 0.00 0.00 0.00 48 1014.6
20260508113028 12 140 0.0 0.0 0.00 0.00 0.00 48 1014.6
20260508112019 12 120 0.0 1.6 0.00 0.00 0.00 48 1014.6
20260508111023 12 114 0.0 0.0 0.00 0.00 0.00 48 1014.5
20260508110014 12 113 0.0 0.0 0.00 0.00 0.00 48 1014.5
20260508105025 12 113 0.0 1.6 0.00 0.00 0.00 49 1014.4
20260508104030 12 110 0.0 1.6 0.00 0.00 0.00 50 1014.3
20260508103021 12 131 0.0 0.0 0.00 0.00 0.00 50 1014.3
20260508102025 12 131 0.0 0.0 0.00 0.00 0.00 50 1014.3
20260508101017 11 134 0.0 0.0 0.00 0.00 0.00 51 1014.3
20260508100028 11 153 0.0 0.0 0.00 0.00 0.00 51 1014.2
20260508095028 11 157 0.0 0.0 0.00 0.00 0.00 52 1014.3
20260508094040 11 158 0.0 0.0 0.00 0.00 0.00 52 1014.2
20260508093031 11 160 0.0 0.0 0.00 0.00 0.00 52 1014.2
20260508092015 11 160 0.0 0.0 0.00 0.00 0.00 52 1014.2
20260508091026 11 158 0.0 0.0 0.00 0.00 0.00 52 1014.2
20260508090017 12 159 0.0 0.0 0.00 0.00 0.00 51 1014.2
20260508085028 12 159 0.0 0.0 0.00 0.00 0.00 50 1014.2
20260508084012 12 159 0.0 0.0 0.00 0.00 0.00 50 1014.3
20260508083024 12 158 0.0 0.0 0.00 0.00 0.00 50 1014.2
20260508082035 12 158 0.0 0.0 0.00 0.00 0.00 50 1014.2
20260508081023 13 160 0.0 0.0 0.00 0.00 0.00 49 1014.2
20260508080031 12 158 0.0 0.0 0.00 0.00 0.00 50 1014.2
20260508075038 12 160 0.0 0.0 0.00 0.00 0.00 50 1014.2
20260508074021 12 160 0.0 0.0 0.00 0.00 0.00 50 1014.1
20260508073032 13 159 0.0 0.0 0.00 0.00 0.00 49 1014.1
20260508072040 13 160 0.0 0.0 0.00 0.00 0.00 48 1014.1
20260508071029 13 162 0.0 0.0 0.00 0.00 0.00 49 1014.2
20260508070033 13 159 0.0 0.0 0.00 0.00 0.00 49 1014.1
20260508065024 13 160 0.0 0.0 0.00 0.00 0.00 49 1014.0
20260508064036 13 160 0.0 0.0 0.00 0.00 0.00 49 1014.0
20260508063021 13 228 0.0 0.0 0.00 0.00 0.00 49 1014.0
20260508062030 13 230 0.0 0.0 0.00 0.00 0.00 48 1013.9
20260508061033 13 230 0.0 0.0 0.00 0.00 0.00 48 1013.9
20260508060025 13 229 0.0 0.0 0.00 0.00 0.00 48 1013.8
20260508055036 14 230 0.0 0.0 0.00 0.00 0.00 47 1013.8
20260508054021 15 230 0.0 0.0 0.00 0.00 0.00 46 1013.8
20260508053053 15 230 0.0 0.0 0.00 0.00 0.00 44 1013.7
20260508052023 16 359 0.0 0.0 0.00 0.00 0.00 43 1013.7
20260508051034 16 231 0.0 0.0 0.00 0.00 0.00 41 1013.7
20260508050017 16 229 0.0 0.0 0.00 0.00 0.00 42 1013.6
20260508045027 16 229 0.0 0.0 0.00 0.00 0.00 42 1013.5
20260508044037 16 359 0.0 0.0 0.00 0.00 0.00 42 1013.5
20260508043048 16 231 0.0 0.0 0.00 0.00 0.00 43 1013.4
20260508042029 16 258 0.0 0.0 0.00 0.00 0.00 44 1013.3
20260508041021 16 257 0.0 0.0 0.00 0.00 0.00 44 1013.3
20260508040033 16 258 0.0 0.0 0.00 0.00 0.00 43 1013.3
20260508035013 17 258 0.0 0.0 0.00 0.00 0.00 43 1013.3
20260508034045 17 258 0.0 0.0 0.00 0.00 0.00 42 1013.1
20260508033015 17 257 0.0 0.0 0.00 0.00 0.00 40 1013.0
20260508032020 18 256 0.0 0.0 0.00 0.00 0.00 40 1012.9
20260508031031 18 256 0.0 0.0 0.00 0.00 0.00 36 1012.8
20260508030023 19 257 0.0 0.0 0.00 0.00 0.00 34 1012.7
20260508025027 20 258 0.0 0.0 0.00 0.00 0.00 34 1012.7
20260508024018 21 359 0.0 0.0 0.00 0.00 0.00 31 1012.7
20260508023050 21 256 0.0 0.0 0.00 0.00 0.00 30 1012.6
20260508022014 22 258 0.0 0.0 0.00 0.00 0.00 28 1012.6
20260508021025 22 257 0.0 0.0 0.00 0.00 0.00 27 1012.5
20260508020037 22 257 0.0 0.0 0.00 0.00 0.00 27 1012.6
20260508015021 22 257 0.0 0.0 0.00 0.00 0.00 27 1012.6
20260508014053 23 257 0.0 0.0 0.00 0.00 0.00 26 1012.7
20260508013044 23 359 0.0 0.0 0.00 0.00 0.00 26 1012.6
20260508012034 23 258 0.0 1.6 0.00 0.00 0.00 26 1012.6
20260508011018 23 256 3.2 8.0 0.00 0.00 0.00 25 1012.7
20260508010044 23 262 1.6 9.7 0.00 0.00 0.00 26 1012.8
20260508005014 23 270 1.6 12.9 0.00 0.00 0.00 24 1012.8
20260508004026 23 359 0.0 11.3 0.00 0.00 0.00 24 1012.9
20260508003056 23 267 0.0 6.4 0.00 0.00 0.00 25 1012.9
20260508002040 23 266 1.6 14.5 0.00 0.00 0.00 26 1012.8
20260508001024 23 251 0.0 8.0 0.00 0.00 0.00 25 1012.8
20260508000035 23 218 0.0 0.0 0.00 0.00 0.00 26 1012.9
20260507235020 23 359 0.0 3.2 0.00 0.00 0.00 27 1013.1
20260507234052 23 250 0.0 11.3 0.00 0.00 0.00 26 1013.3
20260507233022 23 260 1.6 8.0 0.00 0.00 0.00 26 1013.4
20260507232025 23 195 1.6 11.3 0.00 0.00 0.00 26 1013.5
20260507231037 23 253 1.6 9.7 0.00 0.00 0.00 26 1013.7
20260507230018 23 276 0.0 4.8 0.00 0.00 0.00 26 1013.7
20260507225030 23 195 1.6 8.0 0.00 0.00 0.00 26 1013.9
20260507224014 22 153 0.0 0.0 0.00 0.00 0.00 27 1014.1
20260507223026 22 220 0.0 0.0 0.00 0.00 0.00 28 1014.2
20260507222039 21 227 0.0 0.0 0.00 0.00 0.00 29 1014.4
20260507221048 21 359 0.0 4.8 0.00 0.00 0.00 28 1014.6
20260507220031 21 359 1.6 9.7 0.00 0.00 0.00 29 1014.7
20260507215022 21 253 1.6 12.9 0.00 0.00 0.00 29 1014.7
20260507214033 21 262 4.8 11.3 0.00 0.00 0.00 28 1014.9